Regional Weather Roundup
Issued by NWS Jackson, KY

Home | Current Version | Previous Version | Text Only | Print | Product List | Glossary On
Versions: 1 2 3 4 5 6 7 8 9 10 11 12 13 14 15 16 17 18 19 20 21 22 23 24 25 26 27 28 29 30 31 32 33 34 35 36 37 38 39 40 41 42 43 44 45 46 47 48 49 50
000
ASUS43 KJKL 302310
RWRJKL

EAST KENTUCKY HOURLY WEATHER ROUNDUP
NATIONAL WEATHER SERVICE JACKSON KY
700 PM EDT SAT MAY 30 2015

NOTE: "FAIR" INDICATES FEW OR NO CLOUDS BELOW 12,000 FEET WITH
NO SIGNIFICANT WEATHER AND/OR OBSTRUCTIONS TO VISIBILITY.

* THESE REPORTS ARE NOT UNDER NWS QUALITY CONTROL AND MAY NOT
  REPORT WEATHER SUCH AS PRECIPITATION AND FOG.

KYZ079-080-083-085-087-088-110-112-115-119-120-310000
...EASTERN KENTUCKY...

CITY           SKY/WX    TMP DP  RH WIND       PRES   REMARKS
JACKSON        SUNNY     83  59  44 CALM      30.04F
LONDON         SUNNY     85  54  34 S12       30.03F
SOMERSET*      SUNNY     81  57  44 S9        30.02F
MONTICELLO*    SUNNY     84  62  47 S13       30.04F
MIDDLESBORO*   MOSUNNY   83  60  45 SW5       30.05F
HARLAN APT*    PTCLDY    82  54  36 CALM      30.06F
HAZARD APT*    CLEAR     84  54  34 S8        30.04F
BLACK MTN*       N/A     68  55  64 S5          N/A
PIKEVILLE APT* SUNNY     82  57  42 CALM      30.05F
BIG SANDY*     CLEAR     84  61  46 SW7       30.03F
MOREHEAD APT*  CLEAR     82  63  51 S10       30.03F
$$

KYZ035-036-041-042-044-050-067-078-099-310000
...CENTRAL KENTUCKY...

CITY           SKY/WX    TMP DP  RH WIND       PRES   REMARKS
MT STERLING*   SUNNY     82  64  54 SW9G18    30.01F
FLEMING/MASON* SUNNY     82  63  51 S12       30.00F
DANVILLE*      SUNNY     81  61  50 S10G17    30.00F
RICHMOND*      SUNNY     82  57  42 S12       30.00F
LEXINGTON      MOSUNNY   82  62  50 S13G22    29.99F
FRANKFORT      MOSUNNY   83  62  49 S10       29.96F
$$

KYZ091>093-OHZ055-061-077-WVZ005-015-034-035-042-310000
...SOUTHERN OHIO/WEST VIRGINIA...

CITY           SKY/WX    TMP DP  RH WIND       PRES   REMARKS
COVINGTON      PTSUNNY   77  65  66 SW8       29.96S
COLUMBUS       PTSUNNY   73  68  84 SW3       29.98R
DAYTON         CLOUDY    73  68  84 SE8       29.98R
WILMINGTON     PTSUNNY   81  62  52 S17G26    29.96S
HUNTINGTON     SUNNY     83  62  49 S6        29.99F
CHARLESTON     MOSUNNY   86  62  44 W6        30.01F
PINEVILLE*     MOSUNNY   77  67  70 MISG      30.13S
BECKLEY        SUNNY     79  52  38 S13G21    30.12F
BLUEFIELD      SUNNY     79  52  38 S8        30.16F
$$

VAZ002-007-008-TNZ017-027-036-066-071-310000
...SOUTHWEST VIRGINIA/EAST TENNESSEE...

CITY           SKY/WX    TMP DP  RH WIND       PRES   REMARKS
WISE*          SUNNY     81  52  36 SW9       30.14F
JONESVILLE*    CLEAR     84  57  39 SW9       30.08F
ABINGDON*      PTSUNNY   81  58  45 SW6       30.11S
BRISTOL        MOSUNNY   82  58  43 S10       30.08S
KNOXVILLE      PTSUNNY   83  61  47 SW12      30.03F
OAK RIDGE      SUNNY     86  60  41 VRB7      30.05F
CROSSVILLE     SUNNY     79  59  50 S8        30.08F
NASHVILLE      MOSUNNY   81  68  64 S10       29.99F
$$

...KEY TO REMARKS...
VSB - VISIBILITY IN MILES
WCI - WIND CHILL INDEX
HX  - HEAT INDEX

$$


USA.gov is the U.S. government's official web portal to all federal, state and local government web resources and services.